Location: Chequamegon National Forest
(46.1070°N, 90.8420°W)
Time: 04:45:39
(UTC-05:00)

Amateur Radio Satellites - All Passes

Search period start: 26 April 2017 04:15
Search period end: 27 April 2017 04:15
Location: Chequamegon National Forest, 46.1070°N, 90.8420°W

Satellite Date Start Highest point End Downlink Frequencies (MHz)
Time Altitude Azimuth
KKS-1 26 Apr 04:32:03 04:36:28 65° 73° (ENE) 04:40:55 437.445
ITAMSAT 1 26 Apr 04:50:30 04:55:41 78° 287° (WNW) 05:00:51 435.822/435.867
CUBESAT XI-V 26 Apr 05:02:54 05:07:32 71° 258° (WSW) 05:12:14 437.345
Gurwin Techsat 1B 26 Apr 05:03:07 05:05:43 14° 305° (NW) 05:08:17 435.225
STARS 26 Apr 05:05:59 05:10:21 65° 73° (ENE) 05:14:44 437.465
PCSat 26 Apr 05:47:18 05:50:08 14° 332° (NNW) 05:53:00 145.827
AO-7 26 Apr 05:54:34 06:02:36 55° 298° (WNW) 06:10:36 .
CUTE-I 26 Apr 05:55:58 05:57:05 11° 86° (E) 05:58:10 437.470
YUBILEINY 26 Apr 05:56:30 06:04:59 56° 285° (WNW) 06:13:33 435.215
LilacSat-2 26 Apr 06:07:30 06:09:10 12° 90° (E) 06:10:49 437.200
XW-2C 26 Apr 06:09:16 06:10:53 12° 90° (E) 06:12:30 145.795 - 145.815
KKS-1 26 Apr 06:11:02 06:13:28 14° 270° (W) 06:15:55 437.445
RS-15 26 Apr 06:19:21 06:28:11 25° 99° (E) 06:37:08 29.354- 29.394
M-CUBED/EXP-1 PRIME 26 Apr 06:23:57 06:27:59 30° 61° (ENE) 06:32:02 437.505
DOVE 4 26 Apr 06:30:19 06:34:40 36° 95° (E) 06:38:45 437.250
ITAMSAT 1 26 Apr 06:32:04 06:34:18 13° 306° (NW) 06:36:33 435.822/435.867
XW-2F 26 Apr 06:34:07 06:37:10 22° 94° (E) 06:40:12 145.980 - 146.000
STARS 26 Apr 06:44:49 06:47:08 14° 270° (W) 06:49:27 437.465
NUDT-PHONESAT 26 Apr 06:47:36 06:50:45 25° 95° (E) 06:53:54 437.300
SO-50 26 Apr 06:49:11 06:53:27 39° 118° (ESE) 06:57:42 436.795
STRAND 1 26 Apr 06:58:40 07:03:30 45° 69° (ENE) 07:08:22 437.568
XW-2D 26 Apr 07:22:48 07:26:38 89° 127° (SE) 07:30:27 145.860 - 145.880
XW-2B 26 Apr 07:29:44 07:33:33 79° 285° (WNW) 07:37:22 145.730 - 145.750
CUTE-I 26 Apr 07:32:38 07:37:59 78° 103° (ESE) 07:43:18 437.470
LilacSat-2 26 Apr 07:40:01 07:43:47 56° 286° (WNW) 07:47:33 437.200
KAITUO 1B 26 Apr 07:40:53 07:44:39 71° 285° (WNW) 07:48:25 145.475/437.950
HO-68 26 Apr 07:41:32 07:47:38 29° 93° (E) 07:53:42 435.675
XW-2C 26 Apr 07:41:41 07:45:25 55° 287° (WNW) 07:49:10 145.795 - 145.815
AO-7 26 Apr 07:49:09 07:53:36 16° 320° (NW) 07:58:03 .
M-CUBED/EXP-1 PRIME 26 Apr 07:57:58 08:02:15 37° 258° (WSW) 08:06:38 437.505
YUBILEINY 26 Apr 08:00:29 08:04:11 13° 311° (NW) 08:07:55 435.215
AAUSAT CUBESAT 2 26 Apr 08:07:14 08:08:49 12° 88° (E) 08:10:25 437.432
XW-2F 26 Apr 08:08:00 08:11:19 29° 291° (WNW) 08:14:39 145.980 - 146.000
DOVE 4 26 Apr 08:08:17 08:12:12 26° 296° (WNW) 08:15:53 437.250
CUTE 1.7 + AOD 2 26 Apr 08:09:52 08:13:54 39° 97° (E) 08:17:55 437.475
NUDT-PHONESAT 26 Apr 08:21:32 08:24:36 25° 292° (WNW) 08:27:40 437.300
RS-15 26 Apr 08:26:42 08:38:48 83° 122° (ESE) 08:51:15 29.354- 29.394
FO-29 26 Apr 08:28:24 08:30:06 11° 54° (NE) 08:31:47 435.910
SO-50 26 Apr 08:29:48 08:33:59 33° 317° (NW) 08:38:08 436.795
SEEDS 26 Apr 08:31:00 08:35:05 42° 98° (E) 08:39:08 437.485
STRAND 1 26 Apr 08:38:43 08:42:53 25° 266° (W) 08:47:04 437.568
XW-2A 26 Apr 08:40:08 08:43:30 86° 286° (WNW) 08:46:51 145.665 - 145.685
Oscar 11 26 Apr 08:43:22 08:44:58 12° 88° (E) 08:46:34 .
UWE-3 26 Apr 08:57:21 09:01:12 35° 97° (E) 09:05:06 435.000/436.395/437.385
Tancredo 1 26 Apr 09:03:41 09:06:35 36° 143° (SE) 09:09:28 437.200
PRISM 26 Apr 09:07:28 09:11:05 30° 67° (ENE) 09:14:45 437.425
CUBEBUG 2 26 Apr 09:09:10 09:13:20 77° 103° (ESE) 09:17:32 437.445
TIGRISAT 26 Apr 09:09:58 09:13:04 19° 64° (ENE) 09:16:09 435.000
CUTE-I 26 Apr 09:13:59 09:17:25 18° 302° (WNW) 09:20:49 437.470
PCSat 26 Apr 09:20:05 09:22:24 13° 25° (NNE) 09:24:43 145.827
ISS 26 Apr 09:20:32 09:23:37 42° 145° (SE) 09:26:44 437.550
HO-68 26 Apr 09:28:43 09:35:48 62° 293° (WNW) 09:42:52 435.675
UNISAT 6 26 Apr 09:30:06 09:33:59 32° 68° (ENE) 09:37:49 437.425
AAUSAT CUBESAT 2 26 Apr 09:40:34 09:44:45 69° 286° (WNW) 09:48:55 437.432
O/OREOS (USA 219) 26 Apr 09:42:33 09:44:30 13° 97° (E) 09:46:28 437.305
CUTE 1.7 + AOD 2 26 Apr 09:46:10 09:49:31 23° 295° (WNW) 09:52:52 437.475
OBJECT BX 26 Apr 09:46:34 09:46:58 10° 89° (E) 09:47:23 145.990 - 145.960
ZACube-1 26 Apr 09:53:50 09:58:02 83° 100° (E) 10:02:20 437.345
AO-73 26 Apr 10:01:01 10:05:14 90° 102° (ESE) 10:09:31 145.935
SEEDS 26 Apr 10:07:20 10:10:30 21° 295° (WNW) 10:13:39 437.485
FO-29 26 Apr 10:08:08 10:14:20 64° 72° (ENE) 10:19:52 435.910
SO-50 26 Apr 10:15:06 10:15:49 10° 340° (NNW) 10:16:33 436.795
Oscar 11 26 Apr 10:17:16 10:21:37 74° 285° (WNW) 10:25:57 .
AIST 2D 26 Apr 10:17:47 10:18:50 11° 62° (ENE) 10:19:52 435.315
DELFI C3 26 Apr 10:29:16 10:33:08 45° 99° (E) 10:36:58 145.870
UWE-3 26 Apr 10:34:11 10:37:30 23° 294° (WNW) 10:40:52 435.000/436.395/437.385
Tancredo 1 26 Apr 10:39:29 10:42:28 43° 342° (NNW) 10:45:28 437.200
RS-15 26 Apr 10:41:13 10:52:44 44° 330° (NNW) 11:04:24 29.354- 29.394
PRISM 26 Apr 10:42:48 10:46:21 27° 264° (W) 10:49:56 437.425
TIGRISAT 26 Apr 10:45:14 10:49:28 47° 261° (W) 10:53:39 435.000
EO-79 26 Apr 10:46:11 10:48:56 17° 62° (ENE) 10:51:42 145.935-145.965
CUBEBUG 2 26 Apr 10:47:50 10:49:23 12° 300° (WNW) 10:50:57 437.445
DUCHIFAT 1 26 Apr 10:49:07 10:51:34 15° 61° (ENE) 10:54:01 145.980
ISS 26 Apr 10:56:59 11:00:06 43° 342° (NNW) 11:03:15 437.550
PCSat 26 Apr 11:02:08 11:07:19 42° 49° (NE) 11:12:27 145.827
UNISAT 6 26 Apr 11:06:59 11:10:43 27° 265° (W) 11:14:25 437.425
OBJECT BX 26 Apr 11:17:26 11:21:03 62° 285° (WNW) 11:24:41 145.990 - 145.960
HO-68 26 Apr 11:18:23 11:22:09 15° 314° (NW) 11:25:57 435.675
O/OREOS (USA 219) 26 Apr 11:18:39 11:23:14 77° 294° (WNW) 11:27:53 437.305
POLYITAN 1 26 Apr 11:23:53 11:27:49 39° 70° (ENE) 11:31:44 437.675
QB50P2 26 Apr 11:30:17 11:34:22 49° 71° (ENE) 11:38:27 145.880/145.840
ZACube-1 26 Apr 11:32:20 11:33:44 11° 300° (WNW) 11:35:08 437.345
ESTCUBE 1 26 Apr 11:37:05 11:40:19 19° 92° (E) 11:43:32 437.505/2401.250
AO-73 26 Apr 11:39:52 11:40:50 11° 301° (WNW) 11:41:48 145.935
AIST 2D 26 Apr 11:48:10 11:51:35 57° 260° (W) 11:55:01 435.315
BUGSAT 1 26 Apr 11:51:48 11:55:02 22° 65° (ENE) 11:58:15 437.445
NANOSAT C BR1 26 Apr 11:52:32 11:56:43 73° 74° (ENE) 12:00:55 145.865
FO-29 26 Apr 11:55:11 11:59:46 21° 267° (W) 12:04:03 435.910
DELFI C3 26 Apr 12:04:53 12:07:35 18° 296° (WNW) 12:10:16 145.870
Tancredo 1 26 Apr 12:16:06 12:18:51 28° 2° (N) 12:21:35 437.200
EO-79 26 Apr 12:20:12 12:24:19 52° 260° (W) 12:28:27 145.935-145.965
DUCHIFAT 1 26 Apr 12:22:39 12:26:47 59° 259° (W) 12:30:56 145.980
LO-87 26 Apr 12:22:40 12:26:16 75° 284° (WNW) 12:29:47 145.935 - 145.965
AO-85 26 Apr 12:30:08 12:33:25 22° 115° (ESE) 12:36:33 145.980
ISS 26 Apr 12:34:10 12:37:05 29° 3° (N) 12:40:00 437.550
PCSat 26 Apr 12:45:44 12:50:38 35° 248° (WSW) 12:55:29 145.827
DX 1 26 Apr 12:47:28 12:48:10 10° 88° (E) 12:48:53 434.975-435.025
SPROUT 26 Apr 12:57:14 13:01:03 32° 96° (E) 13:04:53 437.525
RS-15 26 Apr 12:58:44 13:09:28 32° 4° (N) 13:20:01 29.354- 29.394
50 SAT 26 Apr 13:00:00 13:02:33 19° 94° (E) 13:05:04 437.505
POLYITAN 1 26 Apr 13:00:34 13:03:45 21° 267° (W) 13:06:56 437.675
O/OREOS (USA 219) 26 Apr 13:01:26 13:03:29 13° 316° (NW) 13:05:34 437.305
Gurwin Techsat 1B 26 Apr 13:05:57 13:10:34 31° 64° (ENE) 13:15:12 435.225
Oscar 19 26 Apr 13:06:50 13:11:47 49° 69° (ENE) 13:16:47 437.125/150
QB50P2 26 Apr 13:07:42 13:10:27 17° 269° (W) 13:13:10 145.880/145.840
ESTCUBE 1 26 Apr 13:12:59 13:17:24 50° 289° (WNW) 13:21:46 437.505/2401.250
AO-7 26 Apr 13:15:04 13:20:16 19° 43° (NE) 13:25:27 .
BEESAT 3 26 Apr 13:17:14 13:18:39 12° 109° (ESE) 13:20:05 437.485
BUGSAT 1 26 Apr 13:26:23 13:30:13 36° 262° (W) 13:34:02 437.445
VELOX 1 26 Apr 13:27:35 13:32:02 71° 102° (ESE) 13:36:25 145.980
NANOSAT C BR1 26 Apr 13:31:33 13:32:55 11° 272° (W) 13:34:18 145.865
SO-50 26 Apr 13:38:13 13:41:02 16° 30° (NNE) 13:43:50 436.795
UKube-1 26 Apr 13:48:33 13:52:27 32° 97° (E) 13:56:19 .
Tancredo 1 26 Apr 13:52:07 13:55:10 53° 21° (NNE) 13:58:13 437.200
YUBILEINY 26 Apr 14:07:20 14:13:38 21° 58° (ENE) 14:19:53 435.215
AO-85 26 Apr 14:09:32 14:13:34 44° 312° (NW) 14:17:26 145.980
ISS 26 Apr 14:10:44 14:13:57 60° 23° (NNE) 14:17:11 437.550
DX 1 26 Apr 14:20:34 14:24:57 84° 287° (WNW) 14:29:18 434.975-435.025
50 SAT 26 Apr 14:32:27 14:35:32 29° 291° (WNW) 14:38:35 437.505
ITAMSAT 1 26 Apr 14:32:30 14:37:00 31° 64° (ENE) 14:41:30 435.822/435.867
SPROUT 26 Apr 14:33:20 14:36:52 26° 294° (WNW) 14:40:22 437.525
Gurwin Techsat 1B 26 Apr 14:45:25 14:50:23 40° 262° (W) 14:55:24 435.225
Oscar 19 26 Apr 14:47:16 14:51:22 24° 267° (W) 14:55:30 437.125/150
BEESAT 2 26 Apr 14:50:09 14:53:52 41° 119° (ESE) 14:57:40 435.950
BEESAT 3 26 Apr 14:51:41 14:55:38 77° 307° (NW) 14:59:40 437.485
AO-7 26 Apr 15:03:23 15:11:33 66° 65° (ENE) 15:19:43 .
VELOX 1 26 Apr 15:05:30 15:07:56 15° 300° (WNW) 15:10:21 145.980
RS-15 26 Apr 15:13:43 15:25:42 51° 37° (NE) 15:37:14 29.354- 29.394
ITUPSAT 1 26 Apr 15:14:21 15:18:08 23° 93° (E) 15:21:55 437.325
SO-50 26 Apr 15:17:47 15:22:18 71° 51° (NE) 15:26:48 436.795
UKube-1 26 Apr 15:24:44 15:28:23 27° 294° (WNW) 15:32:01 .
Tancredo 1 26 Apr 15:28:16 15:30:56 27° 220° (SW) 15:33:36 437.200
ISS 26 Apr 15:47:30 15:50:14 25° 221° (SW) 15:52:57 437.550
AO-85 26 Apr 15:54:43 15:54:57 10° 333° (NNW) 15:55:11 145.980
DX 1 26 Apr 15:59:21 16:00:24 11° 303° (WNW) 16:01:26 434.975-435.025
YUBILEINY 26 Apr 16:03:04 16:11:53 85° 81° (E) 16:20:43 435.215
MOZHAYETS 4 26 Apr 16:06:34 16:10:53 38° 97° (E) 16:15:10
BEESAT 26 Apr 16:10:55 16:15:43 80° 103° (ESE) 16:20:29 436.000
ITAMSAT 1 26 Apr 16:11:30 16:16:20 39° 262° (W) 16:21:13 435.822/435.867
BEESAT 2 26 Apr 16:28:23 16:31:47 26° 319° (NW) 16:35:12 435.950
BEESAT 3 26 Apr 16:31:41 16:33:55 14° 328° (NNW) 16:36:09 437.485
ITUPSAT 1 26 Apr 16:51:37 16:56:10 45° 291° (WNW) 17:00:42 437.325
CUBESAT XI-V 26 Apr 16:57:16 17:01:07 24° 93° (E) 17:04:56 437.345
AO-7 26 Apr 16:57:42 17:04:50 32° 265° (W) 17:12:01 .
SO-50 26 Apr 16:59:33 17:02:13 16° 250° (WSW) 17:04:52 436.795
XW-2F 26 Apr 17:18:07 17:20:30 16° 64° (ENE) 17:22:53 145.980 - 146.000
CUTE-I 26 Apr 17:18:28 17:22:45 25° 62° (ENE) 17:27:03 437.470
RS-15 26 Apr 17:26:46 17:38:48 65° 244° (WSW) 17:50:16 29.354- 29.394
NUDT-PHONESAT 26 Apr 17:29:55 17:32:26 18° 65° (ENE) 17:34:58 437.300
DOVE 4 26 Apr 17:36:53 17:42:01 52° 71° (ENE) 17:47:04 437.250
MOZHAYETS 4 26 Apr 17:44:03 17:47:52 26° 295° (WNW) 17:51:40
BEESAT 26 Apr 17:50:15 17:52:52 15° 302° (WNW) 17:55:29 436.000
KKS-1 26 Apr 17:56:43 18:01:12 90° 276° (W) 18:05:38 437.445
YUBILEINY 26 Apr 18:01:19 18:07:35 23° 282° (WNW) 18:13:52 435.215
XW-2D 26 Apr 18:06:09 18:09:49 59° 74° (ENE) 18:13:32 145.860 - 145.880
XW-2B 26 Apr 18:13:02 18:16:45 70° 75° (ENE) 18:20:31 145.730 - 145.750
HO-68 26 Apr 18:13:18 18:19:15 30° 57° (ENE) 18:25:14 435.675
KAITUO 1B 26 Apr 18:22:57 18:26:37 74° 75° (ENE) 18:30:20 145.475/437.950
LilacSat-2 26 Apr 18:23:51 18:27:37 82° 258° (WSW) 18:31:25 437.200
XW-2C 26 Apr 18:24:56 18:28:40 83° 258° (WSW) 18:32:27 145.795 - 145.815
STARS 26 Apr 18:28:51 18:33:14 88° 98° (E) 18:37:36 437.465
CUBESAT XI-V 26 Apr 18:34:11 18:38:38 41° 290° (WNW) 18:43:02 437.345
CUBEBUG 2 26 Apr 18:37:05 18:37:42 10° 59° (ENE) 18:38:20 437.445
XW-2F 26 Apr 18:50:48 18:54:20 41° 261° (W) 18:57:54 145.980 - 146.000
CUTE-I 26 Apr 18:57:17 19:02:29 52° 260° (W) 19:07:43 437.470
AAUSAT CUBESAT 2 26 Apr 19:00:14 19:01:51 12° 60° (ENE) 19:03:29 437.432
NUDT-PHONESAT 26 Apr 19:02:43 19:06:06 36° 262° (W) 19:09:32 437.300
CUTE 1.7 + AOD 2 26 Apr 19:04:44 19:08:37 37° 69° (ENE) 19:12:32 437.475
NO-84 26 Apr 19:07:08 19:08:52 13° 129° (SE) 19:10:31 435.350 FM
STRAND 1 26 Apr 19:08:28 19:10:29 12° 87° (E) 19:12:29 437.568
XW-2A 26 Apr 19:13:39 19:16:51 43° 73° (ENE) 19:20:03 145.665 - 145.685
DOVE 4 26 Apr 19:15:45 19:19:56 23° 268° (W) 19:24:05 437.250
SEEDS 26 Apr 19:24:50 19:28:44 40° 70° (ENE) 19:32:41 437.485
AO-73 26 Apr 19:26:21 19:27:15 11° 59° (ENE) 19:28:09 145.935
KKS-1 26 Apr 19:35:26 19:37:03 12° 303° (WNW) 19:38:39 437.445
M-CUBED/EXP-1 PRIME 26 Apr 19:36:20 19:37:54 12° 92° (E) 19:39:26 437.505
Oscar 11 26 Apr 19:40:39 19:42:47 14° 60° (ENE) 19:44:55 .
RS-15 26 Apr 19:42:25 19:48:35 16° 267° (W) 19:54:38 29.354- 29.394
XW-2D 26 Apr 19:43:18 19:44:24 11° 271° (W) 19:45:31 145.860 - 145.880
O/OREOS (USA 219) 26 Apr 19:47:08 19:51:27 38° 58° (ENE) 19:55:43 437.305
UWE-3 26 Apr 19:56:36 20:00:33 38° 70° (ENE) 20:04:27 435.000/436.395/437.385
HO-68 26 Apr 19:59:24 20:06:29 66° 257° (WSW) 20:13:39 435.675
STARS 26 Apr 20:07:19 20:08:55 12° 303° (WNW) 20:10:31 437.465
CUBEBUG 2 26 Apr 20:09:18 20:13:40 86° 72° (ENE) 20:17:55 437.445
AAUSAT CUBESAT 2 26 Apr 20:32:33 20:36:42 78° 259° (W) 20:40:53 437.432
CUTE 1.7 + AOD 2 26 Apr 20:41:17 20:44:34 22° 267° (W) 20:47:53 437.475
NO-84 26 Apr 20:42:24 20:46:02 88° 147° (SSE) 20:49:20 435.350 FM
STRAND 1 26 Apr 20:45:14 20:50:22 90° 270° (W) 20:55:29 437.568
XW-2A 26 Apr 20:48:32 20:49:51 12° 269° (W) 20:51:09 145.665 - 145.685
ZACube-1 26 Apr 20:51:46 20:55:58 87° 76° (ENE) 21:00:09 437.345
AO-85 26 Apr 20:57:44 21:01:29 39° 47° (NE) 21:05:19 145.980
AO-73 26 Apr 20:58:39 21:02:50 87° 259° (W) 21:07:00 145.935
SEEDS 26 Apr 21:01:28 21:04:35 20° 268° (W) 21:07:45 437.485
M-CUBED/EXP-1 PRIME 26 Apr 21:08:40 21:12:55 69° 293° (WNW) 21:16:50 437.505
Oscar 11 26 Apr 21:14:04 21:18:20 72° 257° (WSW) 21:22:41 .
DELFI C3 26 Apr 21:16:53 21:20:32 36° 70° (ENE) 21:24:13 145.870
O/OREOS (USA 219) 26 Apr 21:26:54 21:30:41 26° 257° (WSW) 21:34:26 437.305
BEESAT 2 26 Apr 21:28:54 21:30:38 12° 30° (NNE) 21:32:23 435.950
BEESAT 3 26 Apr 21:29:11 21:32:18 21° 39° (NE) 21:35:24 437.485
UWE-3 26 Apr 21:33:55 21:37:09 21° 267° (W) 21:40:21 435.000/436.395/437.385
HO-68 26 Apr 21:53:19 21:55:35 12° 276° (W) 21:57:52 435.675
OBJECT BX 26 Apr 21:57:10 22:00:48 79° 76° (ENE) 22:04:27 145.990 - 145.960
PRISM 26 Apr 22:21:00 22:24:46 32° 97° (E) 22:28:28 437.425
NO-84 26 Apr 22:21:07 22:23:53 23° 342° (NNW) 22:26:28 435.350 FM
STRAND 1 26 Apr 22:26:08 22:28:49 14° 304° (WNW) 22:31:29 437.568
TIGRISAT 26 Apr 22:34:04 22:37:44 27° 95° (E) 22:41:25 435.000
AO-85 26 Apr 22:38:29 22:41:41 23° 244° (WSW) 22:44:58 145.980
ESTCUBE 1 26 Apr 22:38:53 22:42:28 24° 64° (ENE) 22:46:06 437.505/2401.250
DELFI C3 26 Apr 22:52:26 22:55:26 20° 267° (W) 22:58:27 145.870
VELOX 1 26 Apr 22:54:12 22:55:33 11° 57° (ENE) 22:56:54 145.980
UNISAT 6 26 Apr 22:55:00 22:59:10 48° 100° (E) 23:03:20 437.425
FO-29 26 Apr 22:59:02 23:03:56 40° 98° (E) 23:09:03 435.910
LO-87 26 Apr 23:00:42 23:04:17 61° 74° (ENE) 23:07:53 145.935 - 145.965
BEESAT 2 26 Apr 23:05:14 23:09:16 58° 50° (NE) 23:13:15 435.950
BEESAT 3 26 Apr 23:06:16 23:10:14 58° 238° (WSW) 23:14:08 437.485
50 SAT 26 Apr 23:36:21 23:37:48 12° 62° (ENE) 23:39:15 437.505
DX 1 26 Apr 23:44:27 23:46:50 14° 59° (ENE) 23:49:12 434.975-435.025
SPROUT 26 Apr 23:52:45 23:56:37 34° 68° (ENE) 00:00:30 437.525
PRISM 26 Apr 23:56:29 23:59:55 25° 294° (WNW) 00:03:18 437.425
NO-84 27 Apr 00:00:10 00:02:14 16° 3° (N) 00:04:14 435.350 FM
EO-79 27 Apr 00:02:47 00:05:55 20° 93° (E) 00:09:02 145.935-145.965
DUCHIFAT 1 27 Apr 00:04:51 00:07:40 17° 92° (E) 00:10:29 145.980
TIGRISAT 27 Apr 00:10:40 00:14:25 30° 292° (WNW) 00:18:12 435.000
ESTCUBE 1 27 Apr 00:14:50 00:19:04 40° 262° (W) 00:23:21 437.505/2401.250
VELOX 1 27 Apr 00:26:48 00:31:16 84° 73° (ENE) 00:35:45 145.980
UNISAT 6 27 Apr 00:32:35 00:35:32 19° 297° (WNW) 00:38:32 437.425
LO-87 27 Apr 00:37:39 00:38:07 10° 271° (W) 00:38:34 145.935 - 145.965
POLYITAN 1 27 Apr 00:41:24 00:45:31 51° 100° (E) 00:49:36 437.675
AIST 2D 27 Apr 00:43:42 00:47:12 67° 285° (WNW) 00:50:42 435.315
BEESAT 2 27 Apr 00:44:02 00:46:36 16° 249° (WSW) 00:49:10 435.950
FO-29 27 Apr 00:44:32 00:48:57 29° 296° (WNW) 00:53:31 435.910
UKube-1 27 Apr 00:45:07 00:49:07 38° 68° (ENE) 00:53:09 .
QB50P2 27 Apr 00:47:59 00:52:11 66° 101° (E) 00:56:21 145.880/145.840
BUGSAT 1 27 Apr 01:05:32 01:08:51 24° 95° (E) 01:12:09 437.445
50 SAT 27 Apr 01:06:54 01:10:18 52° 260° (W) 01:13:45 437.505
NANOSAT C BR1 27 Apr 01:09:43 01:13:56 86° 280° (W) 01:18:06 145.865
Oscar 19 27 Apr 01:17:16 01:19:58 14° 88° (E) 01:22:39 437.125/150
DX 1 27 Apr 01:18:05 01:22:28 71° 258° (WSW) 01:26:52 434.975-435.025
SPROUT 27 Apr 01:29:06 01:32:35 24° 266° (W) 01:36:06 437.525
NO-84 27 Apr 01:37:41 01:40:28 33° 25° (NNE) 01:43:07 435.350 FM
EO-79 27 Apr 01:37:55 01:41:51 40° 290° (WNW) 01:45:46 145.935-145.965
DUCHIFAT 1 27 Apr 01:39:35 01:43:35 46° 289° (WNW) 01:47:34 145.980
BEESAT 27 Apr 01:44:05 01:47:06 17° 59° (ENE) 01:50:07 436.000
PCSat 27 Apr 01:47:39 01:51:35 21° 107° (ESE) 01:55:33 145.827
VELOX 1 27 Apr 02:07:15 02:08:19 11° 272° (W) 02:09:22 145.980
POLYITAN 1 27 Apr 02:18:10 02:20:55 17° 297° (WNW) 02:23:41 437.675
UKube-1 27 Apr 02:21:49 02:25:15 23° 266° (W) 02:28:44 .
ITUPSAT 1 27 Apr 02:23:16 02:27:35 36° 67° (ENE) 02:31:54 437.325
QB50P2 27 Apr 02:25:14 02:27:28 14° 299° (WNW) 02:29:42 145.880/145.840
BUGSAT 1 27 Apr 02:40:42 02:44:14 30° 292° (WNW) 02:47:45 437.445
NANOSAT C BR1 27 Apr 02:48:26 02:48:56 10° 302° (WNW) 02:49:26 145.865
Oscar 19 27 Apr 02:54:41 02:59:56 82° 286° (WNW) 03:05:08 437.125/150
Gurwin Techsat 1B 27 Apr 02:58:28 03:03:47 66° 102° (ESE) 03:09:03 435.225
AO-7 27 Apr 03:03:54 03:08:43 16° 87° (E) 03:13:30 .
MOZHAYETS 4 27 Apr 03:10:37 03:14:59 48° 71° (ENE) 03:19:23
YUBILEINY 27 Apr 03:14:02 03:19:47 20° 76° (ENE) 03:25:31 435.215
NO-84 27 Apr 03:15:20 03:17:54 28° 225° (SW) 03:20:24 435.350 FM
BEESAT 27 Apr 03:19:38 03:24:21 68° 257° (WSW) 03:29:07 436.000
KKS-1 27 Apr 03:22:50 03:25:18 15° 59° (ENE) 03:27:45 437.445
PCSat 27 Apr 03:29:05 03:34:28 66° 305° (NW) 03:39:54 145.827
STARS 27 Apr 03:53:57 03:56:07 14° 59° (ENE) 03:58:16 437.465
ITUPSAT 1 27 Apr 04:01:21 04:05:27 28° 265° (W) 04:09:35 437.325
CUBESAT XI-V 27 Apr 04:02:47 04:06:52 31° 67° (ENE) 04:11:00 437.345
